Time,TemperatureF,DewpointF,PressureIn,WindDirection,WindDirectionDegrees,WindSpeedMPH,WindSpeedGustMPH,Humidity,HourlyPrecipIn,Conditions,Clouds,dailyrainin,SoftwareType,DateUTC
2013-08-20 00:02:00,73.0,66.2,29.91,North,0,0.0,0.0,79,0.00,,,0.00,WUHU21623XXSP,2013-08-20 05:02:00,
2013-08-20 00:07:00,73.0,66.6,29.91,North,0,0.0,0.0,80,0.00,,,0.00,WUHU21623XXSP,2013-08-20 05:07:00,
2013-08-20 00:12:00,72.9,66.4,29.90,North,0,0.0,0.0,80,0.00,,,0.00,WUHU21623XXSP,2013-08-20 05:12:00,
2013-08-20 00:18:00,72.7,65.8,29.90,North,0,0.0,0.0,79,0.00,,,0.00,WUHU21623XXSP,2013-08-20 05:18:00,
2013-08-20 00:23:00,72.7,66.2,29.90,North,0,0.0,0.0,80,0.00,,,0.00,WUHU21623XXSP,2013-08-20 05:23:00,
2013-08-20 00:28:00,72.5,66.0,29.91,North,0,0.0,0.0,80,0.00,,,0.00,WUHU21623XXSP,2013-08-20 05:28:00,
2013-08-20 00:33:00,72.5,66.0,29.91,North,0,0.0,0.0,80,0.00,,,0.00,WUHU21623XXSP,2013-08-20 05:33:00,
2013-08-20 00:38:00,72.5,66.0,29.91,North,0,0.0,0.0,80,0.00,,,0.00,WUHU21623XXSP,2013-08-20 05:38:00,
2013-08-20 00:43:00,72.3,65.8,29.91,North,0,0.0,0.0,80,0.00,,,0.00,WUHU21623XXSP,2013-08-20 05:43:00,
2013-08-20 00:48:00,72.3,65.8,29.91,North,0,0.0,0.0,80,0.00,,,0.00,WUHU21623XXSP,2013-08-20 05:48:00,
2013-08-20 00:53:00,72.3,65.8,29.91,North,0,0.0,0.0,80,0.00,,,0.00,WUHU21623XXSP,2013-08-20 05:53:00,
2013-08-20 00:58:00,72.1,66.0,29.91,North,0,0.0,0.0,81,0.00,,,0.00,WUHU21623XXSP,2013-08-20 05:58:00,
2013-08-20 01:03:00,72.1,66.0,29.90,North,0,0.0,0.0,81,0.00,,,0.00,WUHU21623XXSP,2013-08-20 06:03:00,
2013-08-20 01:16:00,72.1,66.0,29.90,North,0,0.0,0.0,81,0.00,,,0.00,WUHU21623XXSP,2013-08-20 06:16:00,
2013-08-20 01:21:00,71.8,65.6,29.90,North,0,0.0,0.0,81,0.00,,,0.00,WUHU21623XXSP,2013-08-20 06:21:00,
2013-08-20 01:26:00,71.8,65.6,29.90,North,0,0.0,0.0,81,0.00,,,0.00,WUHU21623XXSP,2013-08-20 06:26:00,
2013-08-20 01:31:00,71.4,65.3,29.90,North,0,0.0,0.0,81,0.00,,,0.00,WUHU21623XXSP,2013-08-20 06:31:00,
2013-08-20 01:36:00,71.4,65.6,29.90,North,0,0.0,0.0,82,0.00,,,0.00,WUHU21623XXSP,2013-08-20 06:36:00,
2013-08-20 01:41:00,71.4,65.6,29.90,North,0,0.0,0.0,82,0.00,,,0.00,WUHU21623XXSP,2013-08-20 06:41:00,
2013-08-20 01:46:00,71.4,65.6,29.90,North,0,0.0,0.0,82,0.00,,,0.00,WUHU21623XXSP,2013-08-20 06:46:00,
2013-08-20 01:51:00,71.2,65.4,29.90,North,0,0.0,0.0,82,0.00,,,0.00,WUHU21623XXSP,2013-08-20 06:51:00,
2013-08-20 01:56:00,71.2,65.4,29.90,North,0,0.0,0.0,82,0.00,,,0.00,WUHU21623XXSP,2013-08-20 06:56:00,
2013-08-20 02:01:00,71.2,65.4,29.90,North,0,0.0,0.0,82,0.00,,,0.00,WUHU21623XXSP,2013-08-20 07:01:00,
2013-08-20 02:06:00,71.2,65.4,29.90,North,0,0.0,0.0,82,0.00,,,0.00,WUHU21623XXSP,2013-08-20 07:06:00,
2013-08-20 02:11:00,70.9,65.1,29.90,North,0,0.0,0.0,82,0.00,,,0.00,WUHU21623XXSP,2013-08-20 07:11:00,
2013-08-20 02:16:00,70.9,65.4,29.90,North,0,0.0,0.0,83,0.00,,,0.00,WUHU21623XXSP,2013-08-20 07:16:00,
2013-08-20 02:21:00,70.9,65.4,29.90,North,0,0.0,0.0,83,0.00,,,0.00,WUHU21623XXSP,2013-08-20 07:21:00,
2013-08-20 02:26:00,70.9,65.4,29.90,North,0,0.0,0.0,83,0.00,,,0.00,WUHU21623XXSP,2013-08-20 07:26:00,
2013-08-20 02:31:00,70.9,65.4,29.90,North,0,0.0,0.0,83,0.00,,,0.00,WUHU21623XXSP,2013-08-20 07:31:00,
2013-08-20 02:36:00,70.7,65.2,29.90,North,0,0.0,0.0,83,0.00,,,0.00,WUHU21623XXSP,2013-08-20 07:36:00,
2013-08-20 02:42:00,70.7,65.2,29.90,North,0,0.0,0.0,83,0.00,,,0.00,WUHU21623XXSP,2013-08-20 07:42:00,
2013-08-20 02:47:00,70.7,65.2,29.90,North,0,0.0,0.0,83,0.00,,,0.00,WUHU21623XXSP,2013-08-20 07:47:00,
2013-08-20 02:52:00,70.9,65.4,29.90,North,0,0.0,0.0,83,0.00,,,0.00,WUHU21623XXSP,2013-08-20 07:52:00,
2013-08-20 02:57:00,70.9,65.4,29.90,North,0,0.0,0.0,83,0.00,,,0.00,WUHU21623XXSP,2013-08-20 07:57:00,
2013-08-20 03:02:00,70.9,65.4,29.90,North,0,0.0,0.0,83,0.00,,,0.00,WUHU21623XXSP,2013-08-20 08:02:00,
2013-08-20 03:07:00,70.9,65.4,29.90,North,0,0.0,0.0,83,0.00,,,0.00,WUHU21623XXSP,2013-08-20 08:07:00,
2013-08-20 03:12:00,70.9,65.4,29.89,North,0,0.0,0.0,83,0.00,,,0.00,WUHU21623XXSP,2013-08-20 08:12:00,
2013-08-20 03:17:00,70.9,65.4,29.89,North,0,0.0,0.0,83,0.00,,,0.00,WUHU21623XXSP,2013-08-20 08:17:00,
2013-08-20 03:22:00,70.9,65.4,29.89,North,0,0.0,0.0,83,0.00,,,0.00,WUHU21623XXSP,2013-08-20 08:22:00,
2013-08-20 03:27:00,70.9,65.4,29.89,North,0,0.0,0.0,83,0.00,,,0.00,WUHU21623XXSP,2013-08-20 08:27:00,
2013-08-20 03:32:00,71.2,65.8,29.89,North,0,0.0,0.0,83,0.00,,,0.00,WUHU21623XXSP,2013-08-20 08:32:00,
2013-08-20 03:37:00,71.2,65.8,29.89,North,0,0.0,0.0,83,0.00,,,0.00,WUHU21623XXSP,2013-08-20 08:37:00,
2013-08-20 03:42:00,71.4,66.0,29.89,North,0,0.0,0.0,83,0.00,,,0.00,WUHU21623XXSP,2013-08-20 08:42:00,
2013-08-20 03:47:00,71.4,66.0,29.89,North,0,0.0,0.0,83,0.00,,,0.00,WUHU21623XXSP,2013-08-20 08:47:00,
2013-08-20 03:52:00,71.4,66.0,29.89,North,0,0.0,0.0,83,0.00,,,0.00,WUHU21623XXSP,2013-08-20 08:52:00,
2013-08-20 03:57:00,71.4,66.0,29.89,North,0,0.0,0.0,83,0.00,,,0.00,WUHU21623XXSP,2013-08-20 08:57:00,
2013-08-20 04:02:00,71.4,66.0,29.89,North,0,0.0,0.0,83,0.00,,,0.00,WUHU21623XXSP,2013-08-20 09:02:00,
2013-08-20 04:07:00,71.4,66.0,29.89,North,0,0.0,0.0,83,0.00,,,0.00,WUHU21623XXSP,2013-08-20 09:07:00,
2013-08-20 04:12:00,71.4,66.0,29.89,North,0,0.0,0.0,83,0.00,,,0.00,WUHU21623XXSP,2013-08-20 09:12:00,
2013-08-20 04:17:00,71.2,65.8,29.89,North,0,0.0,0.0,83,0.00,,,0.00,WUHU21623XXSP,2013-08-20 09:17:00,
2013-08-20 04:23:00,71.2,65.8,29.89,North,0,0.0,0.0,83,0.00,,,0.00,WUHU21623XXSP,2013-08-20 09:23:00,
2013-08-20 04:28:00,71.2,65.8,29.89,North,0,0.0,0.0,83,0.00,,,0.00,WUHU21623XXSP,2013-08-20 09:28:00,
2013-08-20 04:33:00,70.9,65.4,29.89,North,0,0.0,0.0,83,0.00,,,0.00,WUHU21623XXSP,2013-08-20 09:33:00,
2013-08-20 04:38:00,70.9,65.4,29.89,North,0,0.0,0.0,83,0.00,,,0.00,WUHU21623XXSP,2013-08-20 09:38:00,
2013-08-20 04:43:00,70.9,65.4,29.89,North,0,0.0,0.0,83,0.00,,,0.00,WUHU21623XXSP,2013-08-20 09:43:00,
2013-08-20 04:48:00,70.7,65.2,29.89,North,0,0.0,0.0,83,0.00,,,0.00,WUHU21623XXSP,2013-08-20 09:48:00,
2013-08-20 04:53:00,70.7,65.2,29.89,North,0,0.0,0.0,83,0.00,,,0.00,WUHU21623XXSP,2013-08-20 09:53:00,
2013-08-20 04:58:00,70.7,65.2,29.89,North,0,0.0,0.0,83,0.00,,,0.00,WUHU21623XXSP,2013-08-20 09:58:00,
2013-08-20 05:03:00,70.5,65.4,29.89,North,0,0.0,0.0,84,0.00,,,0.00,WUHU21623XXSP,2013-08-20 10:03:00,
2013-08-20 05:08:00,70.5,65.4,29.89,North,0,0.0,0.0,84,0.00,,,0.00,WUHU21623XXSP,2013-08-20 10:08:00,
2013-08-20 05:13:00,70.3,65.2,29.89,North,0,0.0,0.0,84,0.00,,,0.00,WUHU21623XXSP,2013-08-20 10:13:00,
2013-08-20 05:18:00,70.3,65.2,29.89,North,0,0.0,0.0,84,0.00,,,0.00,WUHU21623XXSP,2013-08-20 10:18:00,
2013-08-20 05:23:00,70.3,65.2,29.89,North,0,0.0,0.0,84,0.00,,,0.00,WUHU21623XXSP,2013-08-20 10:23:00,
2013-08-20 05:28:00,70.3,65.2,29.89,North,0,0.0,0.0,84,0.00,,,0.00,WUHU21623XXSP,2013-08-20 10:28:00,
2013-08-20 05:33:00,70.2,65.0,29.89,North,0,0.0,0.0,84,0.00,,,0.00,WUHU21623XXSP,2013-08-20 10:33:00,
2013-08-20 05:38:00,70.2,65.0,29.89,North,0,0.0,0.0,84,0.00,,,0.00,WUHU21623XXSP,2013-08-20 10:38:00,
2013-08-20 05:43:00,70.0,64.9,29.89,North,0,0.0,0.0,84,0.00,,,0.00,WUHU21623XXSP,2013-08-20 10:43:00,
2013-08-20 05:48:00,70.0,64.9,29.89,North,0,0.0,0.0,84,0.00,,,0.00,WUHU21623XXSP,2013-08-20 10:48:00,
2013-08-20 05:53:00,70.0,64.9,29.89,North,0,0.0,0.0,84,0.00,,,0.00,WUHU21623XXSP,2013-08-20 10:53:00,
2013-08-20 05:58:00,69.8,65.0,29.89,North,0,0.0,0.0,85,0.00,,,0.00,WUHU21623XXSP,2013-08-20 10:58:00,
2013-08-20 06:03:00,69.6,64.8,29.89,North,0,0.0,0.0,85,0.00,,,0.00,WUHU21623XXSP,2013-08-20 11:03:00,
2013-08-20 06:09:00,69.6,64.8,29.89,North,0,0.0,0.0,85,0.00,,,0.00,WUHU21623XXSP,2013-08-20 11:09:00,
2013-08-20 06:14:00,69.6,64.8,29.89,North,0,0.0,0.0,85,0.00,,,0.00,WUHU21623XXSP,2013-08-20 11:14:00,
2013-08-20 06:19:00,69.6,64.8,29.89,North,0,0.0,0.0,85,0.00,,,0.00,WUHU21623XXSP,2013-08-20 11:19:00,
2013-08-20 06:24:00,69.6,64.8,29.90,North,0,0.0,0.0,85,0.00,,,0.00,WUHU21623XXSP,2013-08-20 11:24:00,
2013-08-20 06:29:00,69.6,64.8,29.89,North,0,0.0,0.0,85,0.00,,,0.00,WUHU21623XXSP,2013-08-20 11:29:00,
2013-08-20 06:34:00,69.6,64.8,29.90,North,0,0.0,0.0,85,0.00,,,0.00,WUHU21623XXSP,2013-08-20 11:34:00,
2013-08-20 06:39:00,69.6,65.2,29.90,North,0,0.0,0.0,86,0.00,,,0.00,WUHU21623XXSP,2013-08-20 11:39:00,
2013-08-20 06:44:00,69.6,64.8,29.90,North,0,0.0,0.0,85,0.00,,,0.00,WUHU21623XXSP,2013-08-20 11:44:00,
2013-08-20 06:49:00,69.6,65.2,29.90,North,0,0.0,0.0,86,0.00,,,0.00,WUHU21623XXSP,2013-08-20 11:49:00,
2013-08-20 06:54:00,69.8,65.0,29.90,North,0,0.0,0.0,85,0.00,,,0.00,WUHU21623XXSP,2013-08-20 11:54:00,
2013-08-20 06:59:00,70.0,65.2,29.90,North,0,0.0,0.0,85,0.00,,,0.00,WUHU21623XXSP,2013-08-20 11:59:00,
2013-08-20 07:04:00,70.0,65.2,29.90,North,0,0.0,0.0,85,0.00,,,0.00,WUHU21623XXSP,2013-08-20 12:04:00,
2013-08-20 07:09:00,70.2,65.4,29.90,North,0,0.0,0.0,85,0.00,,,0.00,WUHU21623XXSP,2013-08-20 12:09:00,
2013-08-20 07:14:00,70.2,65.4,29.91,North,0,0.0,0.0,85,0.00,,,0.00,WUHU21623XXSP,2013-08-20 12:14:00,
2013-08-20 07:19:00,70.2,65.4,29.91,North,0,0.0,0.0,85,0.00,,,0.00,WUHU21623XXSP,2013-08-20 12:19:00,
2013-08-20 07:24:00,70.2,65.4,29.91,North,0,0.0,0.0,85,0.00,,,0.00,WUHU21623XXSP,2013-08-20 12:24:00,
2013-08-20 07:29:00,70.3,65.6,29.91,North,0,0.0,0.0,85,0.00,,,0.00,WUHU21623XXSP,2013-08-20 12:29:00,
2013-08-20 07:34:00,70.5,65.8,29.91,North,0,0.0,0.0,85,0.00,,,0.00,WUHU21623XXSP,2013-08-20 12:34:00,
2013-08-20 07:39:00,70.7,65.9,29.91,North,0,0.0,0.0,85,0.00,,,0.00,WUHU21623XXSP,2013-08-20 12:39:00,
2013-08-20 07:44:00,70.9,66.1,29.91,North,0,0.0,0.0,85,0.00,,,0.00,WUHU21623XXSP,2013-08-20 12:44:00,
2013-08-20 07:49:00,71.2,66.1,29.91,North,0,0.0,0.0,84,0.00,,,0.00,WUHU21623XXSP,2013-08-20 12:49:00,
2013-08-20 07:54:00,71.4,66.3,29.91,North,0,0.0,0.0,84,0.00,,,0.00,WUHU21623XXSP,2013-08-20 12:54:00,
2013-08-20 08:00:00,71.6,66.5,29.91,North,0,0.0,0.0,84,0.00,,,0.00,WUHU21623XXSP,2013-08-20 13:00:00,
2013-08-20 08:05:00,72.1,66.8,29.91,North,0,0.0,0.0,84,0.00,,,0.00,WUHU21623XXSP,2013-08-20 13:05:00,
2013-08-20 08:10:00,72.3,67.2,29.91,North,0,0.0,0.0,84,0.00,,,0.00,WUHU21623XXSP,2013-08-20 13:10:00,
2013-08-20 08:15:00,72.5,67.0,29.91,North,0,0.0,0.0,83,0.00,,,0.00,WUHU21623XXSP,2013-08-20 13:15:00,
2013-08-20 08:20:00,73.0,67.6,29.91,North,0,0.0,0.0,83,0.00,,,0.00,WUHU21623XXSP,2013-08-20 13:20:00,
2013-08-20 08:25:00,73.2,67.4,29.91,North,0,0.0,0.0,82,0.00,,,0.00,WUHU21623XXSP,2013-08-20 13:25:00,
2013-08-20 08:30:00,73.2,67.4,29.91,North,0,0.0,0.0,82,0.00,,,0.00,WUHU21623XXSP,2013-08-20 13:30:00,
2013-08-20 08:35:00,73.8,67.8,29.91,North,0,0.0,0.0,82,0.00,,,0.00,WUHU21623XXSP,2013-08-20 13:35:00,
2013-08-20 08:40:00,73.9,67.8,29.91,North,0,0.0,0.0,81,0.00,,,0.00,WUHU21623XXSP,2013-08-20 13:40:00,
2013-08-20 08:45:00,74.1,67.8,29.91,North,0,0.0,0.0,81,0.00,,,0.00,WUHU21623XXSP,2013-08-20 13:45:00,
2013-08-20 08:50:00,74.5,68.3,29.91,North,0,0.0,0.0,81,0.00,,,0.00,WUHU21623XXSP,2013-08-20 13:50:00,
2013-08-20 08:55:00,74.7,68.3,29.91,North,0,0.0,0.0,81,0.00,,,0.00,WUHU21623XXSP,2013-08-20 13:55:00,
2013-08-20 09:00:00,74.8,68.4,29.91,North,0,0.0,0.0,80,0.00,,,0.00,WUHU21623XXSP,2013-08-20 14:00:00,
2013-08-20 09:05:00,75.0,68.5,29.91,North,0,0.0,0.0,80,0.00,,,0.00,WUHU21623XXSP,2013-08-20 14:05:00,
2013-08-20 09:10:00,75.4,68.9,29.91,North,0,0.0,0.0,80,0.00,,,0.00,WUHU21623XXSP,2013-08-20 14:10:00,
2013-08-20 09:15:00,75.7,68.8,29.91,North,0,0.0,0.0,79,0.00,,,0.00,WUHU21623XXSP,2013-08-20 14:15:00,
2013-08-20 09:20:00,75.9,69.0,29.91,North,0,0.0,0.0,79,0.00,,,0.00,WUHU21623XXSP,2013-08-20 14:20:00,
2013-08-20 09:25:00,76.3,69.3,29.92,North,0,0.0,0.0,79,0.00,,,0.00,WUHU21623XXSP,2013-08-20 14:25:00,
2013-08-20 09:30:00,76.6,69.2,29.91,North,0,0.0,0.0,78,0.00,,,0.00,WUHU21623XXSP,2013-08-20 14:30:00,
2013-08-20 09:35:00,76.8,69.4,29.91,North,0,0.0,0.0,78,0.00,,,0.00,WUHU21623XXSP,2013-08-20 14:35:00,
2013-08-20 09:40:00,77.0,69.4,29.91,North,0,0.0,0.0,78,0.00,,,0.00,WUHU21623XXSP,2013-08-20 14:40:00,
2013-08-20 09:45:00,77.4,69.5,29.91,North,0,0.0,0.0,77,0.00,,,0.00,WUHU21623XXSP,2013-08-20 14:45:00,
2013-08-20 09:50:00,77.5,69.7,29.91,North,0,0.0,0.0,77,0.00,,,0.00,WUHU21623XXSP,2013-08-20 14:50:00,
2013-08-20 09:55:00,77.7,69.7,29.91,North,0,0.0,0.0,78,0.00,,,0.00,WUHU21623XXSP,2013-08-20 14:55:00,
2013-08-20 10:00:00,77.9,70.1,29.91,North,0,0.0,0.0,77,0.00,,,0.00,WUHU21623XXSP,2013-08-20 15:00:00,
2013-08-20 10:05:00,78.1,70.3,29.91,North,0,0.0,0.0,77,0.00,,,0.00,WUHU21623XXSP,2013-08-20 15:05:00,
2013-08-20 10:10:00,78.4,70.6,29.91,North,0,0.0,0.0,77,0.00,,,0.00,WUHU21623XXSP,2013-08-20 15:10:00,
2013-08-20 10:15:00,78.6,70.4,29.91,North,0,0.0,0.0,76,0.00,,,0.00,WUHU21623XXSP,2013-08-20 15:15:00,
2013-08-20 10:20:00,79.0,70.7,29.91,North,0,0.0,0.0,76,0.00,,,0.00,WUHU21623XXSP,2013-08-20 15:20:00,
2013-08-20 10:25:00,79.3,70.7,29.91,North,0,0.0,0.0,76,0.00,,,0.00,WUHU21623XXSP,2013-08-20 15:25:00,
2013-08-20 10:30:00,79.5,71.3,29.90,North,0,0.0,0.0,76,0.00,,,0.00,WUHU21623XXSP,2013-08-20 15:30:00,
2013-08-20 10:35:00,79.7,71.5,29.91,North,0,0.0,0.0,76,0.00,,,0.00,WUHU21623XXSP,2013-08-20 15:35:00,
2013-08-20 10:41:00,79.9,71.6,29.90,North,0,0.0,0.0,76,0.00,,,0.00,WUHU21623XXSP,2013-08-20 15:41:00,
2013-08-20 10:46:00,80.4,71.8,29.91,North,0,0.0,0.0,75,0.00,,,0.00,WUHU21623XXSP,2013-08-20 15:46:00,
2013-08-20 10:51:00,80.6,72.0,29.90,North,0,0.0,0.0,75,0.00,,,0.00,WUHU21623XXSP,2013-08-20 15:51:00,
2013-08-20 10:56:00,80.8,72.1,29.90,North,0,0.0,0.0,75,0.00,,,0.00,WUHU21623XXSP,2013-08-20 15:56:00,
2013-08-20 11:01:00,81.0,72.3,29.91,North,0,0.0,0.0,75,0.00,,,0.00,WUHU21623XXSP,2013-08-20 16:01:00,
2013-08-20 11:06:00,81.1,71.9,29.91,North,0,0.0,0.0,74,0.00,,,0.00,WUHU21623XXSP,2013-08-20 16:06:00,
2013-08-20 11:11:00,81.3,72.2,29.91,North,0,0.0,0.0,74,0.00,,,0.00,WUHU21623XXSP,2013-08-20 16:11:00,
2013-08-20 11:16:00,81.7,72.6,29.91,North,0,0.0,0.0,74,0.00,,,0.00,WUHU21623XXSP,2013-08-20 16:16:00,
2013-08-20 11:21:00,81.7,72.6,29.91,North,0,0.0,0.0,74,0.00,,,0.00,WUHU21623XXSP,2013-08-20 16:21:00,
2013-08-20 11:26:00,82.2,73.1,29.91,North,0,0.0,0.0,74,0.00,,,0.00,WUHU21623XXSP,2013-08-20 16:26:00,
2013-08-20 11:31:00,82.2,73.1,29.91,North,0,0.0,0.0,74,0.00,,,0.00,WUHU21623XXSP,2013-08-20 16:31:00,
2013-08-20 11:36:00,82.4,73.3,29.90,North,0,0.0,0.0,74,0.00,,,0.00,WUHU21623XXSP,2013-08-20 16:36:00,
2013-08-20 11:41:00,82.8,73.6,29.90,North,0,0.0,0.0,74,0.00,,,0.00,WUHU21623XXSP,2013-08-20 16:41:00,
2013-08-20 11:46:00,82.9,73.4,29.90,North,0,0.0,0.0,73,0.00,,,0.00,WUHU21623XXSP,2013-08-20 16:46:00,
2013-08-20 11:51:00,83.1,73.5,29.90,North,0,0.0,0.0,73,0.00,,,0.00,WUHU21623XXSP,2013-08-20 16:51:00,
2013-08-20 11:56:00,83.3,73.3,29.89,North,0,0.0,0.0,73,0.00,,,0.00,WUHU21623XXSP,2013-08-20 16:56:00,
2013-08-20 12:01:00,83.5,73.5,29.90,North,0,0.0,0.0,72,0.00,,,0.00,WUHU21623XXSP,2013-08-20 17:01:00,
2013-08-20 12:06:00,83.8,73.8,29.90,North,0,0.0,0.0,72,0.00,,,0.00,WUHU21623XXSP,2013-08-20 17:06:00,
2013-08-20 12:11:00,84.0,74.0,29.89,North,0,0.0,0.0,72,0.00,,,0.00,WUHU21623XXSP,2013-08-20 17:11:00,
2013-08-20 12:16:00,84.2,74.2,29.89,North,0,0.0,0.0,72,0.00,,,0.00,WUHU21623XXSP,2013-08-20 17:16:00,
2013-08-20 12:21:00,84.4,74.4,29.89,North,0,0.0,0.0,72,0.00,,,0.00,WUHU21623XXSP,2013-08-20 17:21:00,
2013-08-20 12:26:00,84.6,74.2,29.89,North,0,0.0,0.0,71,0.00,,,0.00,WUHU21623XXSP,2013-08-20 17:26:00,
2013-08-20 12:31:00,84.7,74.3,29.89,North,0,0.0,0.0,71,0.00,,,0.00,WUHU21623XXSP,2013-08-20 17:31:00,
2013-08-20 12:36:00,84.9,74.3,29.89,North,0,0.0,0.0,71,0.00,,,0.00,WUHU21623XXSP,2013-08-20 17:36:00,
2013-08-20 12:41:00,85.3,74.5,29.89,North,0,0.0,0.0,70,0.00,,,0.00,WUHU21623XXSP,2013-08-20 17:41:00,
2013-08-20 12:46:00,85.5,74.7,29.89,North,0,0.0,0.0,70,0.00,,,0.00,WUHU21623XXSP,2013-08-20 17:46:00,
2013-08-20 12:51:00,85.6,74.8,29.89,North,0,0.0,0.0,70,0.00,,,0.00,WUHU21623XXSP,2013-08-20 17:51:00,
2013-08-20 12:56:00,85.8,75.0,29.89,North,0,0.0,0.0,70,0.00,,,0.00,WUHU21623XXSP,2013-08-20 17:56:00,
2013-08-20 13:01:00,85.8,75.0,29.89,North,0,0.0,0.0,70,0.00,,,0.00,WUHU21623XXSP,2013-08-20 18:01:00,
2013-08-20 13:06:00,86.2,74.7,29.88,North,0,0.0,0.0,68,0.00,,,0.00,WUHU21623XXSP,2013-08-20 18:06:00,
2013-08-20 13:11:00,86.2,74.9,29.88,North,0,0.0,0.0,69,0.00,,,0.00,WUHU21623XXSP,2013-08-20 18:11:00,
2013-08-20 13:16:00,86.2,74.4,29.89,North,0,0.0,0.0,68,0.00,,,0.00,WUHU21623XXSP,2013-08-20 18:16:00,
2013-08-20 13:21:00,86.2,74.9,29.88,North,0,0.0,0.0,69,0.00,,,0.00,WUHU21623XXSP,2013-08-20 18:21:00,
2013-08-20 13:26:00,86.5,74.8,29.89,North,0,0.0,0.0,68,0.00,,,0.00,WUHU21623XXSP,2013-08-20 18:26:00,
2013-08-20 13:31:00,86.5,74.8,29.88,North,0,0.0,0.0,68,0.00,,,0.00,WUHU21623XXSP,2013-08-20 18:31:00,
2013-08-20 13:36:00,86.7,74.9,29.88,North,0,0.0,0.0,68,0.00,,,0.00,WUHU21623XXSP,2013-08-20 18:36:00,
2013-08-20 13:41:00,86.9,75.1,29.88,North,0,0.0,0.0,68,0.00,,,0.00,WUHU21623XXSP,2013-08-20 18:41:00,
2013-08-20 13:46:00,86.9,75.1,29.88,North,0,0.0,0.0,68,0.00,,,0.00,WUHU21623XXSP,2013-08-20 18:46:00,
2013-08-20 13:51:00,87.1,75.1,29.88,North,0,0.0,0.0,68,0.00,,,0.00,WUHU21623XXSP,2013-08-20 18:51:00,
2013-08-20 13:56:00,87.4,75.6,29.88,North,0,0.0,0.0,68,0.00,,,0.00,WUHU21623XXSP,2013-08-20 18:56:00,
2013-08-20 14:01:00,87.4,75.1,29.89,North,0,0.0,0.0,67,0.00,,,0.00,WUHU21623XXSP,2013-08-20 19:01:00,
2013-08-20 14:06:00,87.6,75.6,29.88,North,0,0.0,0.0,67,0.00,,,0.00,WUHU21623XXSP,2013-08-20 19:06:00,
2013-08-20 14:11:00,87.6,75.3,29.88,North,0,0.0,0.0,67,0.00,,,0.00,WUHU21623XXSP,2013-08-20 19:11:00,
2013-08-20 14:16:00,87.6,75.3,29.88,North,0,0.0,0.0,67,0.00,,,0.00,WUHU21623XXSP,2013-08-20 19:16:00,
2013-08-20 14:21:00,87.6,74.8,29.88,North,0,0.0,0.0,66,0.00,,,0.00,WUHU21623XXSP,2013-08-20 19:21:00,
2013-08-20 14:26:00,87.6,75.3,29.87,North,0,0.0,0.0,67,0.00,,,0.00,WUHU21623XXSP,2013-08-20 19:26:00,
2013-08-20 14:31:00,87.6,75.3,29.87,North,0,0.0,0.0,67,0.00,,,0.00,WUHU21623XXSP,2013-08-20 19:31:00,
2013-08-20 14:36:00,87.6,74.8,29.87,North,0,0.0,0.0,66,0.00,,,0.00,WUHU21623XXSP,2013-08-20 19:36:00,
2013-08-20 14:41:00,87.6,74.8,29.87,North,0,0.0,0.0,66,0.00,,,0.00,WUHU21623XXSP,2013-08-20 19:41:00,
2013-08-20 14:46:00,87.6,74.8,29.87,North,0,0.0,0.0,66,0.00,,,0.00,WUHU21623XXSP,2013-08-20 19:46:00,
2013-08-20 14:51:00,88.0,75.2,29.86,North,0,0.0,0.0,66,0.00,,,0.00,WUHU21623XXSP,2013-08-20 19:51:00,
2013-08-20 14:56:00,88.0,75.2,29.87,North,0,0.0,0.0,66,0.00,,,0.00,WUHU21623XXSP,2013-08-20 19:56:00,
2013-08-20 15:01:00,88.0,75.2,29.87,North,0,0.0,0.0,66,0.00,,,0.00,WUHU21623XXSP,2013-08-20 20:01:00,
2013-08-20 15:06:00,88.0,75.2,29.87,North,0,0.0,0.0,66,0.00,,,0.00,WUHU21623XXSP,2013-08-20 20:06:00,
2013-08-20 15:11:00,88.3,75.5,29.87,North,0,0.0,0.0,66,0.00,,,0.00,WUHU21623XXSP,2013-08-20 20:11:00,
2013-08-20 15:16:00,88.3,75.1,29.87,North,0,0.0,0.0,65,0.00,,,0.00,WUHU21623XXSP,2013-08-20 20:16:00,
2013-08-20 15:21:00,88.5,74.8,29.87,North,0,0.0,0.0,65,0.00,,,0.00,WUHU21623XXSP,2013-08-20 20:21:00,
2013-08-20 15:26:00,88.3,74.6,29.87,North,0,0.0,0.0,64,0.00,,,0.00,WUHU21623XXSP,2013-08-20 20:26:00,
2013-08-20 15:31:00,88.3,75.1,29.86,North,0,0.0,0.0,65,0.00,,,0.00,WUHU21623XXSP,2013-08-20 20:31:00,
2013-08-20 15:36:00,88.2,74.9,29.86,North,0,0.0,0.0,65,0.00,,,0.00,WUHU21623XXSP,2013-08-20 20:36:00,
2013-08-20 15:41:00,88.0,74.7,29.86,North,0,0.0,0.0,65,0.00,,,0.00,WUHU21623XXSP,2013-08-20 20:41:00,
2013-08-20 15:46:00,88.3,75.5,29.86,North,0,0.0,0.0,66,0.00,,,0.00,WUHU21623XXSP,2013-08-20 20:46:00,
2013-08-20 15:51:00,88.9,75.4,29.86,North,0,0.0,0.0,65,0.00,,,0.00,WUHU21623XXSP,2013-08-20 20:51:00,
2013-08-20 15:56:00,89.4,76.4,29.86,North,0,0.0,0.0,65,0.00,,,0.00,WUHU21623XXSP,2013-08-20 20:56:00,
2013-08-20 16:01:00,89.8,76.3,29.86,North,0,0.0,0.0,64,0.00,,,0.00,WUHU21623XXSP,2013-08-20 21:01:00,
2013-08-20 16:06:00,89.3,75.3,29.86,North,0,0.0,0.0,63,0.00,,,0.00,WUHU21623XXSP,2013-08-20 21:06:00,
2013-08-20 16:11:00,89.0,75.5,29.87,North,0,0.0,0.0,64,0.00,,,0.00,WUHU21623XXSP,2013-08-20 21:11:00,
2013-08-20 16:16:00,88.9,75.4,29.86,North,0,0.0,0.0,64,0.00,,,0.00,WUHU21623XXSP,2013-08-20 21:16:00,
2013-08-20 16:21:00,88.9,75.5,29.86,North,0,0.0,0.0,64,0.00,,,0.00,WUHU21623XXSP,2013-08-20 21:21:00,
2013-08-20 16:27:00,88.8,74.9,29.86,North,0,0.0,0.0,63,0.00,,,0.00,WUHU21623XXSP,2013-08-20 21:27:00,
2013-08-20 16:32:00,88.7,75.3,29.86,North,0,0.0,0.0,64,0.00,,,0.00,WUHU21623XXSP,2013-08-20 21:32:00,
2013-08-20 16:36:00,89.2,75.7,29.86,North,0,0.0,0.0,64,0.00,,,0.00,WUHU21623XXSP,2013-08-20 21:36:00,
2013-08-20 16:42:00,89.1,75.2,29.86,North,0,0.0,0.0,63,0.00,,,0.00,WUHU21623XXSP,2013-08-20 21:42:00,
2013-08-20 16:46:00,88.4,74.5,29.86,North,0,0.0,0.0,63,0.00,,,0.00,WUHU21623XXSP,2013-08-20 21:46:00,
2013-08-20 16:52:00,88.1,74.7,29.86,North,0,0.0,0.0,64,0.00,,,0.00,WUHU21623XXSP,2013-08-20 21:52:00,
2013-08-20 16:57:00,88.0,74.6,29.86,North,0,0.0,0.0,64,0.00,,,0.00,WUHU21623XXSP,2013-08-20 21:57:00,
2013-08-20 17:02:00,87.6,74.3,29.86,North,0,0.0,0.0,64,0.00,,,0.00,WUHU21623XXSP,2013-08-20 22:02:00,
2013-08-20 17:07:00,86.9,73.6,29.86,North,0,0.0,0.0,64,0.00,,,0.00,WUHU21623XXSP,2013-08-20 22:07:00,
2013-08-20 17:12:00,86.6,73.2,29.86,North,0,0.0,0.0,64,0.00,,,0.00,WUHU21623XXSP,2013-08-20 22:12:00,
2013-08-20 17:17:00,86.3,73.4,29.86,North,0,0.0,0.0,65,0.00,,,0.00,WUHU21623XXSP,2013-08-20 22:17:00,
2013-08-20 17:22:00,85.8,72.9,29.86,North,0,0.0,0.0,65,0.00,,,0.00,WUHU21623XXSP,2013-08-20 22:22:00,
2013-08-20 17:27:00,85.4,73.0,29.86,North,0,0.0,0.0,66,0.00,,,0.00,WUHU21623XXSP,2013-08-20 22:27:00,
2013-08-20 17:32:00,85.1,72.8,29.87,North,0,0.0,0.0,66,0.00,,,0.00,WUHU21623XXSP,2013-08-20 22:32:00,
2013-08-20 17:37:00,84.8,72.9,29.87,North,0,0.0,0.0,67,0.00,,,0.00,WUHU21623XXSP,2013-08-20 22:37:00,
2013-08-20 17:42:00,84.6,72.7,29.87,North,0,0.0,0.0,67,0.00,,,0.00,WUHU21623XXSP,2013-08-20 22:42:00,
2013-08-20 17:47:00,84.4,73.0,29.86,North,0,0.0,0.0,68,0.00,,,0.00,WUHU21623XXSP,2013-08-20 22:47:00,
2013-08-20 17:52:00,84.3,72.9,29.86,North,0,0.0,0.0,68,0.00,,,0.00,WUHU21623XXSP,2013-08-20 22:52:00,
2013-08-20 17:57:00,84.1,72.6,29.86,North,0,0.0,0.0,68,0.00,,,0.00,WUHU21623XXSP,2013-08-20 22:57:00,
2013-08-20 18:02:00,84.0,72.6,29.86,North,0,0.0,0.0,68,0.00,,,0.00,WUHU21623XXSP,2013-08-20 23:02:00,
2013-08-20 18:07:00,84.0,72.5,29.86,North,0,0.0,0.0,68,0.00,,,0.00,WUHU21623XXSP,2013-08-20 23:07:00,
2013-08-20 18:12:00,83.9,72.5,29.86,North,0,0.0,0.0,68,0.00,,,0.00,WUHU21623XXSP,2013-08-20 23:12:00,
2013-08-20 18:17:00,83.9,72.4,29.86,North,0,0.0,0.0,68,0.00,,,0.00,WUHU21623XXSP,2013-08-20 23:17:00,
2013-08-20 18:22:00,83.4,72.0,29.86,North,0,0.0,0.0,68,0.00,,,0.00,WUHU21623XXSP,2013-08-20 23:22:00,
2013-08-20 18:27:00,83.4,72.4,29.86,North,0,0.0,0.0,69,0.00,,,0.00,WUHU21623XXSP,2013-08-20 23:27:00,
2013-08-20 18:32:00,83.2,72.2,29.86,North,0,0.0,0.0,69,0.00,,,0.00,WUHU21623XXSP,2013-08-20 23:32:00,
2013-08-20 18:37:00,83.2,72.2,29.86,North,0,0.0,0.0,69,0.00,,,0.00,WUHU21623XXSP,2013-08-20 23:37:00,
2013-08-20 18:42:00,82.8,71.9,29.86,North,0,0.0,0.0,69,0.00,,,0.00,WUHU21623XXSP,2013-08-20 23:42:00,
2013-08-20 18:47:00,82.8,72.3,29.86,North,0,0.0,0.0,70,0.00,,,0.00,WUHU21623XXSP,2013-08-20 23:47:00,
2013-08-20 18:52:00,83.1,72.5,29.86,North,0,0.0,0.0,70,0.00,,,0.00,WUHU21623XXSP,2013-08-20 23:52:00,
2013-08-20 18:57:00,83.3,72.7,29.86,North,0,0.0,0.0,70,0.00,,,0.00,WUHU21623XXSP,2013-08-20 23:57:00,
2013-08-20 19:02:00,83.3,72.7,29.86,North,0,0.0,0.0,70,0.00,,,0.00,WUHU21623XXSP,2013-08-21 00:02:00,
2013-08-20 19:07:00,83.3,72.3,29.86,North,0,0.0,0.0,69,0.00,,,0.00,WUHU21623XXSP,2013-08-21 00:07:00,
2013-08-20 19:12:00,83.3,72.3,29.86,North,0,0.0,0.0,69,0.00,,,0.00,WUHU21623XXSP,2013-08-21 00:12:00,
2013-08-20 19:17:00,83.1,72.6,29.86,North,0,0.0,0.0,70,0.00,,,0.00,WUHU21623XXSP,2013-08-21 00:17:00,
2013-08-20 19:22:00,83.1,72.6,29.86,North,0,0.0,0.0,70,0.00,,,0.00,WUHU21623XXSP,2013-08-21 00:22:00,
2013-08-20 19:27:00,83.2,72.6,29.86,North,0,0.0,0.0,70,0.00,,,0.00,WUHU21623XXSP,2013-08-21 00:27:00,
2013-08-20 19:32:00,82.7,72.2,29.86,North,0,0.0,0.0,70,0.00,,,0.00,WUHU21623XXSP,2013-08-21 00:32:00,
2013-08-20 19:37:00,82.3,72.2,29.86,North,0,0.0,0.0,71,0.00,,,0.00,WUHU21623XXSP,2013-08-21 00:37:00,
2013-08-20 19:42:00,82.3,72.1,29.86,North,0,0.0,0.0,71,0.00,,,0.00,WUHU21623XXSP,2013-08-21 00:42:00,
2013-08-20 19:47:00,81.7,72.0,29.86,North,0,0.0,0.0,72,0.00,,,0.00,WUHU21623XXSP,2013-08-21 00:47:00,
2013-08-20 19:52:00,81.4,71.4,29.86,North,0,0.0,0.0,71,0.00,,,0.00,WUHU21623XXSP,2013-08-21 00:52:00,
2013-08-20 19:57:00,81.3,71.6,29.86,North,0,0.0,0.0,72,0.00,,,0.00,WUHU21623XXSP,2013-08-21 00:57:00,
2013-08-20 20:02:00,80.8,71.1,29.86,North,0,0.0,0.0,72,0.00,,,0.00,WUHU21623XXSP,2013-08-21 01:02:00,
2013-08-20 20:07:00,80.5,71.3,29.86,North,0,0.0,0.0,73,0.00,,,0.00,WUHU21623XXSP,2013-08-21 01:07:00,
2013-08-20 20:12:00,80.2,71.3,29.86,North,0,0.0,0.0,74,0.00,,,0.00,WUHU21623XXSP,2013-08-21 01:12:00,
2013-08-20 20:17:00,79.7,70.9,29.86,North,0,0.0,0.0,74,0.00,,,0.00,WUHU21623XXSP,2013-08-21 01:17:00,
2013-08-20 20:20:00,79.8,70.9,29.86,North,0,0.0,0.0,74,0.00,,,0.00,WUHU21623XXSP,2013-08-21 01:20:00,
2013-08-20 20:25:00,79.6,71.2,29.86,North,0,0.0,0.0,75,0.00,,,0.00,WUHU21623XXSP,2013-08-21 01:25:00,
2013-08-20 20:30:00,79.3,70.9,29.86,North,0,0.0,0.0,75,0.00,,,0.00,WUHU21623XXSP,2013-08-21 01:30:00,
2013-08-20 20:35:00,79.1,71.0,29.86,North,0,0.0,0.0,76,0.00,,,0.00,WUHU21623XXSP,2013-08-21 01:35:00,
2013-08-20 20:40:00,78.8,71.1,29.86,North,0,0.0,0.0,77,0.00,,,0.00,WUHU21623XXSP,2013-08-21 01:40:00,
2013-08-20 20:45:00,78.7,71.0,29.86,North,0,0.0,0.0,77,0.00,,,0.00,WUHU21623XXSP,2013-08-21 01:45:00,
2013-08-20 20:50:00,78.5,71.2,29.86,North,0,0.0,0.0,78,0.00,,,0.00,WUHU21623XXSP,2013-08-21 01:50:00,
2013-08-20 20:55:00,78.1,70.8,29.86,North,0,0.0,0.0,78,0.00,,,0.00,WUHU21623XXSP,2013-08-21 01:55:00,
2013-08-20 21:00:00,78.0,71.1,29.86,North,0,0.0,0.0,79,0.00,,,0.00,WUHU21623XXSP,2013-08-21 02:00:00,
2013-08-20 21:05:00,78.0,71.1,29.86,North,0,0.0,0.0,79,0.00,,,0.00,WUHU21623XXSP,2013-08-21 02:05:00,
2013-08-20 21:10:00,77.9,71.0,29.87,North,0,0.0,0.0,79,0.00,,,0.00,WUHU21623XXSP,2013-08-21 02:10:00,
2013-08-20 21:15:00,77.6,70.7,29.87,North,0,0.0,0.0,79,0.00,,,0.00,WUHU21623XXSP,2013-08-21 02:15:00,
2013-08-20 21:20:00,77.7,70.8,29.87,North,0,0.0,0.0,79,0.00,,,0.00,WUHU21623XXSP,2013-08-21 02:20:00,
2013-08-20 21:25:00,77.6,70.7,29.87,North,0,0.0,0.0,79,0.00,,,0.00,WUHU21623XXSP,2013-08-21 02:25:00,
2013-08-20 21:30:00,77.7,71.1,29.87,North,0,0.0,0.0,80,0.00,,,0.00,WUHU21623XXSP,2013-08-21 02:30:00,
2013-08-20 21:35:00,77.5,71.0,29.87,North,0,0.0,0.0,80,0.00,,,0.00,WUHU21623XXSP,2013-08-21 02:35:00,
2013-08-20 21:40:00,77.6,71.1,29.87,North,0,0.0,0.0,80,0.00,,,0.00,WUHU21623XXSP,2013-08-21 02:40:00,
2013-08-20 21:45:00,77.6,71.4,29.87,North,0,0.0,0.0,81,0.00,,,0.00,WUHU21623XXSP,2013-08-21 02:45:00,
2013-08-20 21:50:00,77.5,71.3,29.87,North,0,0.0,0.0,81,0.00,,,0.00,WUHU21623XXSP,2013-08-21 02:50:00,
2013-08-20 21:55:00,77.6,71.4,29.87,North,0,0.0,0.0,81,0.00,,,0.00,WUHU21623XXSP,2013-08-21 02:55:00,
2013-08-20 22:00:00,77.5,71.3,29.87,North,0,0.0,0.0,81,0.00,,,0.00,WUHU21623XXSP,2013-08-21 03:00:00,
2013-08-20 22:05:00,77.5,71.6,29.87,North,0,0.0,0.0,82,0.00,,,0.00,WUHU21623XXSP,2013-08-21 03:05:00,
2013-08-20 22:10:00,77.4,71.4,29.87,North,0,0.0,0.0,82,0.00,,,0.00,WUHU21623XXSP,2013-08-21 03:10:00,
2013-08-20 22:15:00,77.2,71.6,29.87,North,0,0.0,0.0,83,0.00,,,0.00,WUHU21623XXSP,2013-08-21 03:15:00,
2013-08-20 22:20:00,77.2,71.6,29.87,North,0,0.0,0.0,83,0.00,,,0.00,WUHU21623XXSP,2013-08-21 03:20:00,
2013-08-20 22:25:00,77.0,71.4,29.87,North,0,0.0,0.0,83,0.00,,,0.00,WUHU21623XXSP,2013-08-21 03:25:00,
2013-08-20 22:30:00,76.8,71.2,29.87,North,0,0.0,0.0,83,0.00,,,0.00,WUHU21623XXSP,2013-08-21 03:30:00,
2013-08-20 22:35:00,76.8,71.2,29.87,North,0,0.0,0.0,83,0.00,,,0.00,WUHU21623XXSP,2013-08-21 03:35:00,
2013-08-20 22:40:00,76.8,71.1,29.87,North,0,0.0,0.0,83,0.00,,,0.00,WUHU21623XXSP,2013-08-21 03:40:00,
2013-08-20 22:45:00,76.6,71.1,29.87,North,0,0.0,0.0,83,0.00,,,0.00,WUHU21623XXSP,2013-08-21 03:45:00,
2013-08-20 22:50:00,76.5,71.3,29.86,North,0,0.0,0.0,84,0.00,,,0.00,WUHU21623XXSP,2013-08-21 03:50:00,
2013-08-20 22:55:00,76.5,71.3,29.87,North,0,0.0,0.0,84,0.00,,,0.00,WUHU21623XXSP,2013-08-21 03:55:00,
2013-08-20 23:00:00,76.3,71.1,29.87,North,0,0.0,0.0,84,0.00,,,0.00,WUHU21623XXSP,2013-08-21 04:00:00,
2013-08-20 23:01:00,76.3,71.1,29.87,North,0,0.0,0.0,84,0.00,,,0.00,WUHU21623XXSP,2013-08-21 04:01:00,
2013-08-20 23:06:00,76.3,71.1,29.87,North,0,0.0,0.0,84,0.00,,,0.00,WUHU21623XXSP,2013-08-21 04:06:00,
2013-08-20 23:11:00,76.3,71.5,29.87,North,0,0.0,0.0,85,0.00,,,0.00,WUHU21623XXSP,2013-08-21 04:11:00,
2013-08-20 23:16:00,76.1,71.3,29.87,North,0,0.0,0.0,85,0.00,,,0.00,WUHU21623XXSP,2013-08-21 04:16:00,
2013-08-20 23:21:00,76.1,71.3,29.87,North,0,0.0,0.0,85,0.00,,,0.00,WUHU21623XXSP,2013-08-21 04:21:00,
2013-08-20 23:26:00,75.9,71.1,29.86,North,0,0.0,0.0,85,0.00,,,0.00,WUHU21623XXSP,2013-08-21 04:26:00,
2013-08-20 23:31:00,75.9,71.5,29.86,North,0,0.0,0.0,86,0.00,,,0.00,WUHU21623XXSP,2013-08-21 04:31:00,
2013-08-20 23:36:00,75.7,71.3,29.86,North,0,0.0,0.0,86,0.00,,,0.00,WUHU21623XXSP,2013-08-21 04:36:00,
2013-08-20 23:41:00,75.7,71.3,29.86,North,0,0.0,0.0,86,0.00,,,0.00,WUHU21623XXSP,2013-08-21 04:41:00,
2013-08-20 23:46:00,75.6,71.1,29.86,North,0,0.0,0.0,86,0.00,,,0.00,WUHU21623XXSP,2013-08-21 04:46:00,
2013-08-20 23:51:00,75.4,70.9,29.86,North,0,0.0,0.0,86,0.00,,,0.00,WUHU21623XXSP,2013-08-21 04:51:00,
2013-08-20 23:56:00,75.0,70.9,29.86,North,0,0.0,0.0,87,0.00,,,0.00,WUHU21623XXSP,2013-08-21 04:56:00,